Location: Arran
(51.9410°N, 101.7372°W)
Time: 08:39:39
(UTC+00:00)

ITUPSAT 1 - Visible Passes

Search period start: 06 December 2023 00:00
Search period end: 16 December 2023 00:00
Orbit: 697 x 707 km, 98.5° (Epoch: 06 December)

Date Brightness Start Highest point End Pass type
(mag) Time Alt. Az. Time Alt. Az. Time Alt. Az.
08 Dec ? 13:54:11 10° E 13:57:32 19° NE 14:00:54 10° N visible
10 Dec ? 13:42:33 10° E 13:45:24 16° NE 13:48:15 10° NNE visible
12 Dec ? 13:31:05 10° ENE 13:33:16 13° NE 13:35:27 10° NNE visible
14 Dec ? 13:20:06 10° ENE 13:21:09 11° NE 13:22:12 10° NE visible
15 Dec ? 13:59:44 10° ESE 14:03:15 21° ENE 14:06:46 10° N visible
